This is the latest recevied weather packets stored in our database for station/object SP2ARQ-13. If no packets are shown the sender has not sent any weather packets the latest 10 day(s).
| Time | Temp. | Humidity | Pressure | Rain* | Wind** | Luminosity | Snow |
|---|---|---|---|---|---|---|---|
| 1777668144 | 14.44° C | 51% | 1024.3 hPa | - | - | - | - |
| 1777667244 | 15° C | 50% | 1024.2 hPa | - | - | - | - |
| 1777666344 | 15.56° C | 49% | 1024.2 hPa | - | - | - | - |
| 1777665444 | 15.56° C | 48% | 1024.3 hPa | - | - | - | - |
| 1777664544 | 15.56° C | 50% | 1024.3 hPa | - | - | - | - |
| 1777663644 | 16.11° C | 48% | 1024.3 hPa | - | - | - | - |
| 1777662743 | 16.67° C | 46% | 1024.1 hPa | - | - | - | - |
| 1777661843 | 17.22° C | 45% | 1024.2 hPa | - | - | - | - |
| 1777660943 | 17.78° C | 45% | 1024.2 hPa | - | - | - | - |
| 1777660043 | 18.33° C | 45% | 1024.1 hPa | - | - | - | - |
| 1777659143 | 18.89° C | 43% | 1024 hPa | - | - | - | - |
| 1777658243 | 19.44° C | 41% | 1023.9 hPa | - | - | - | - |
| 1777657342 | 20° C | 41% | 1023.9 hPa | - | - | - | - |
| 1777656442 | 20.56° C | 40% | 1023.9 hPa | - | - | - | - |
| 1777655542 | 20.56° C | 39% | 1023.8 hPa | - | - | - | - |
| 1777654642 | 21.11° C | 38% | 1023.9 hPa | - | - | - | - |
| 1777653742 | 21.11° C | 37% | 1023.9 hPa | - | - | - | - |
| 1777652841 | 21.67° C | 36% | 1024.1 hPa | - | - | - | - |
| 1777651941 | 21.67° C | 38% | 1024.1 hPa | - | - | - | - |
| 1777651041 | 22.78° C | 36% | 1024.2 hPa | - | - | - | - |
| 1777650141 | 23.89° C | 34% | 1024.3 hPa | - | - | - | - |
| 1777649241 | 25° C | 34% | 1024.2 hPa | - | - | - | - |
| 1777648341 | 25.56° C | 34% | 1024.4 hPa | - | - | - | - |
| 1777647440 | 26.67° C | 32% | 1024.5 hPa | - | - | - | - |
| 1777646540 | 26.67° C | 32% | 1024.6 hPa | - | - | - | - |
* Rain since midnight (hover to see other rain measurements)
** Current wind speed in m/s (hover to see current wind gust speed)